• în România
  • Lista ţărilor
  • Pe 7 zile
  • Temperatura apei
  • Hartă satelitară
  • Meteo pe hartă
  • Widget-uri
  • user-avatar
    Intrare

    Meteo pe oră la Adelaide

    Astăzi, 20 Februarie, Marţi

    Timp Temperatura Precipitaţii Vânt Presiune Umiditate
    00:00 +23°C° 0 mm 4 m/s 755 mmHg 57%
    01:00 +23°C° 0 mm 4 m/s 755 mmHg 58%
    02:00 +23°C° 0 mm 4 m/s 755 mmHg 59%
    03:00 +22°C° 0 mm 3 m/s 755 mmHg 61%
    04:00 +22°C° 0 mm 3 m/s 755 mmHg 62%
    05:00 +22°C° 0 mm 3 m/s 755 mmHg 62%
    06:00 +22°C° 0 mm 3 m/s 755 mmHg 63%
    07:00 +25°C° 0 mm 4 m/s 755 mmHg 57%
    08:00 +27°C° 0 mm 4 m/s 755 mmHg 52%
    09:00 +29°C° 0 mm 4 m/s 755 mmHg 46%
    10:00 +31°C° 0 mm 3 m/s 755 mmHg 41%
    11:00 +34°C° 0 mm 3 m/s 754 mmHg 37%
    12:00 +36°C° 0 mm 2 m/s 754 mmHg 32%
    13:00 +36°C° 0 mm 3 m/s 754 mmHg 31%
    14:00 +36°C° 0 mm 4 m/s 753 mmHg 31%
    15:00 +37°C° 0 mm 4 m/s 753 mmHg 30%
    16:00 +35°C° 0 mm 4 m/s 753 mmHg 33%
    17:00 +34°C° 0 mm 5 m/s 753 mmHg 35%
    18:00 +33°C° 0 mm 5 m/s 753 mmHg 38%
    19:00 +32°C° 0 mm 5 m/s 753 mmHg 43%
    20:00 +29°C° 0 mm 5 m/s 753 mmHg 48%
    21:00 +28°C° 0 mm 5 m/s 753 mmHg 53%
    22:00 +27°C° 0 mm 4 m/s 753 mmHg 54%
    23:00 +27°C° 0 mm 3 m/s 753 mmHg 55%

    Mâine, 21 Februarie, Miercuri

    Timp Temperatura Precipitaţii Vânt Presiune Umiditate
    00:00 +27°C° 0 mm 3 m/s 753 mmHg 56%
    01:00 +26°C° 0 mm 3 m/s 753 mmHg 57%
    02:00 +26°C° 0 mm 4 m/s 753 mmHg 58%
    03:00 +26°C° 0 mm 4 m/s 753 mmHg 59%
    04:00 +26°C° 0 mm 4 m/s 753 mmHg 61%
    05:00 +25°C° 0 mm 4 m/s 753 mmHg 63%
    06:00 +25°C° 0 mm 4 m/s 754 mmHg 65%
    07:00 +26°C° 0 mm 4 m/s 754 mmHg 62%
    08:00 +26°C° 0 mm 3 m/s 754 mmHg 59%
    09:00 +27°C° 0 mm 2 m/s 754 mmHg 57%
    10:00 +27°C° 0,2 mm 2 m/s 754 mmHg 56%
    11:00 +27°C° 0,2 mm 2 m/s 754 mmHg 55%
    12:00 +28°C° 0,2 mm 2 m/s 754 mmHg 55%
    13:00 +28°C° 0,3 mm 2 m/s 754 mmHg 55%
    14:00 +28°C° 0,3 mm 2 m/s 754 mmHg 56%
    15:00 +28°C° 0,3 mm 2 m/s 753 mmHg 56%
    16:00 +27°C° 0 mm 2 m/s 753 mmHg 59%
    17:00 +27°C° 0 mm 2 m/s 753 mmHg 62%
    18:00 +26°C° 0 mm 2 m/s 753 mmHg 65%
    19:00 +25°C° 0 mm 2 m/s 754 mmHg 67%
    20:00 +25°C° 0 mm 2 m/s 754 mmHg 69%
    21:00 +25°C° 0 mm 1 m/s 754 mmHg 71%
    22:00 +24°C° 0 mm 1 m/s 754 mmHg 72%
    23:00 +24°C° 0 mm 1 m/s 754 mmHg 73%

    Poimâine, 22 Februarie, Joi

    Timp Temperatura Precipitaţii Vânt Presiune Umiditate
    00:00 +24°C° 0 mm 1 m/s 753 mmHg 74%
    01:00 +24°C° 0 mm 1 m/s 753 mmHg 73%
    02:00 +24°C° 0 mm 1 m/s 752 mmHg 73%
    03:00 +24°C° 0 mm 1 m/s 752 mmHg 72%
    04:00 +24°C° 0 mm 1 m/s 752 mmHg 71%
    05:00 +25°C° 0 mm 2 m/s 752 mmHg 70%
    06:00 +25°C° 0 mm 2 m/s 752 mmHg 68%
    07:00 +27°C° 0 mm 2 m/s 752 mmHg 62%
    08:00 +28°C° 0 mm 2 m/s 752 mmHg 55%
    09:00 +30°C° 0 mm 2 m/s 752 mmHg 49%
    10:00 +31°C° 0 mm 2 m/s 752 mmHg 45%
    11:00 +33°C° 0 mm 3 m/s 752 mmHg 42%
    12:00 +34°C° 0 mm 3 m/s 752 mmHg 39%
    13:00 +33°C° 0,3 mm 3 m/s 751 mmHg 43%
    14:00 +32°C° 0,3 mm 4 m/s 751 mmHg 46%
    15:00 +30°C° 0,3 mm 4 m/s 750 mmHg 50%
    16:00 +29°C° 0,3 mm 5 m/s 750 mmHg 55%
    17:00 +28°C° 0,3 mm 6 m/s 749 mmHg 60%
    18:00 +27°C° 0,3 mm 7 m/s 749 mmHg 65%
    19:00 +28°C° 0 mm 7 m/s 748 mmHg 60%
    20:00 +28°C° 0 mm 8 m/s 748 mmHg 56%
    21:00 +29°C° 0 mm 8 m/s 748 mmHg 51%
    22:00 +29°C° 0 mm 8 m/s 747 mmHg 47%
    23:00 +31°C° 0 mm 8 m/s 747 mmHg 42%

    23 Februarie, Vineri

    Timp Temperatura Precipitaţii Vânt Presiune Umiditate
    00:00 +32°C° 0 mm 8 m/s 746 mmHg 37%
    01:00 +30°C° 0 mm 7 m/s 746 mmHg 43%
    02:00 +29°C° 0 mm 7 m/s 746 mmHg 49%
    03:00 +29°C° 0 mm 6 m/s 745 mmHg 55%
    04:00 +28°C° 0 mm 6 m/s 746 mmHg 59%
    05:00 +27°C° 0 mm 7 m/s 746 mmHg 63%
    06:00 +26°C° 0 mm 7 m/s 747 mmHg 67%
    07:00 +26°C° 0,3 mm 8 m/s 747 mmHg 69%
    08:00 +26°C° 0,3 mm 8 m/s 748 mmHg 71%
    09:00 +26°C° 0,3 mm 8 m/s 748 mmHg 73%
    10:00 +26°C° 0,2 mm 8 m/s 748 mmHg 75%
    11:00 +24°C° 0,2 mm 7 m/s 749 mmHg 77%
    12:00 +24°C° 0,2 mm 7 m/s 749 mmHg 79%
    13:00 +24°C° 0 mm 7 m/s 749 mmHg 77%
    14:00 +24°C° 0 mm 7 m/s 750 mmHg 76%
    15:00 +24°C° 0 mm 7 m/s 750 mmHg 75%
    16:00 +24°C° 0 mm 6 m/s 751 mmHg 75%
    17:00 +23°C° 0 mm 6 m/s 751 mmHg 76%
    18:00 +23°C° 0 mm 5 m/s 752 mmHg 76%
    19:00 +22°C° 0 mm 5 m/s 752 mmHg 77%
    20:00 +22°C° 0 mm 5 m/s 753 mmHg 78%
    21:00 +21°C° 0 mm 5 m/s 754 mmHg 79%
    22:00 +21°C° 0 mm 5 m/s 754 mmHg 79%
    23:00 +21°C° 0 mm 5 m/s 754 mmHg 78%

    24 Februarie, Sâmbătă

    Timp Temperatura Precipitaţii Vânt Presiune Umiditate
    00:00 +20°C° 0 mm 5 m/s 754 mmHg 78%
    01:00 +20°C° 0 mm 5 m/s 754 mmHg 78%
    02:00 +20°C° 0 mm 5 m/s 754 mmHg 77%
    03:00 +20°C° 0 mm 5 m/s 754 mmHg 77%
    04:00 +19°C° 0 mm 4 m/s 754 mmHg 78%
    05:00 +19°C° 0 mm 4 m/s 755 mmHg 79%
    06:00 +19°C° 0 mm 4 m/s 755 mmHg 79%
    07:00 +20°C° 0 mm 5 m/s 756 mmHg 73%
    08:00 +21°C° 0 mm 5 m/s 756 mmHg 66%
    09:00 +22°C° 0 mm 5 m/s 756 mmHg 60%
    10:00 +23°C° 0 mm 6 m/s 756 mmHg 57%
    11:00 +24°C° 0 mm 6 m/s 756 mmHg 55%
    12:00 +24°C° 0 mm 7 m/s 756 mmHg 53%
    13:00 +24°C° 0 mm 7 m/s 756 mmHg 51%
    14:00 +24°C° 0 mm 7 m/s 757 mmHg 49%
    15:00 +23°C° 0 mm 8 m/s 757 mmHg 48%
    16:00 +22°C° 0 mm 8 m/s 757 mmHg 50%
    17:00 +21°C° 0 mm 8 m/s 758 mmHg 53%
    18:00 +18°C° 0 mm 8 m/s 759 mmHg 56%
    19:00 +18°C° 0 mm 7 m/s 759 mmHg 58%
    20:00 +17°C° 0 mm 7 m/s 760 mmHg 59%
    21:00 +16°C° 0 mm 6 m/s 761 mmHg 61%
    22:00 +16°C° 0 mm 6 m/s 761 mmHg 61%
    23:00 +15°C° 0 mm 5 m/s 761 mmHg 62%

    25 Februarie, Duminică

    Timp Temperatura Precipitaţii Vânt Presiune Umiditate
    00:00 +15°C° 0 mm 5 m/s 761 mmHg 62%
    01:00 +15°C° 0 mm 5 m/s 761 mmHg 63%
    02:00 +14°C° 0 mm 4 m/s 761 mmHg 64%
    03:00 +14°C° 0 mm 4 m/s 761 mmHg 65%
    04:00 +14°C° 0 mm 4 m/s 761 mmHg 65%
    05:00 +14°C° 0 mm 4 m/s 762 mmHg 66%
    06:00 +14°C° 0 mm 4 m/s 762 mmHg 66%
    07:00 +15°C° 0 mm 4 m/s 762 mmHg 60%
    08:00 +17°C° 0 mm 4 m/s 762 mmHg 55%
    09:00 +18°C° 0 mm 4 m/s 762 mmHg 49%
    10:00 +20°C° 0 mm 4 m/s 762 mmHg 45%
    11:00 +21°C° 0 mm 4 m/s 761 mmHg 40%
    12:00 +22°C° 0 mm 4 m/s 761 mmHg 36%
    13:00 +23°C° 0 mm 4 m/s 760 mmHg 35%
    14:00 +23°C° 0 mm 5 m/s 760 mmHg 35%
    15:00 +23°C° 0 mm 5 m/s 759 mmHg 35%
    16:00 +22°C° 0 mm 5 m/s 759 mmHg 40%
    17:00 +21°C° 0 mm 6 m/s 760 mmHg 45%
    18:00 +20°C° 0 mm 6 m/s 760 mmHg 50%
    19:00 +19°C° 0 mm 6 m/s 760 mmHg 56%
    20:00 +17°C° 0 mm 6 m/s 760 mmHg 61%
    21:00 +16°C° 0 mm 5 m/s 761 mmHg 66%
    22:00 +16°C° 0 mm 5 m/s 760 mmHg 66%
    23:00 +16°C° 0 mm 5 m/s 760 mmHg 66%
    Arată mai mult